sat.trackr.live / text

‹ back to catalog

ASBM-1

NORAD 60422 · 2024-143A

PAYLOAD ACTIVE UNKNOWN

§ Identity

Operator
Country
NOR
Launch date
2024-08-12
Launch site
AFWTR
Launch vehicle
Mass (kg)
RCS (m²)

External: N2YO · Heavens-Above · Gunter

§ Orbital elements

Epoch: 2026-09-21T05:22:52.896576Z

Period
957.27 min
Inclination
62.9327°
Eccentricity
0.5644561
Mean motion
1.50427306 rev/d
Perigee alt
7,635.5 km
Apogee alt
43,958.1 km
Semi-major
32,174.9 km
B*
0.0000e+0
RAAN
41.6965°
Arg perigee
269.4461°
Mean anomaly
29.3625°
Rev number
1,306

§ Raw data

ASBM-11 60422U 24143A   26264.22422334 -.00000016  00000+0  00000+0 0  99962 60422  62.9327  41.6965 5644561 269.4461  29.3625  1.50427306 13064

JSON: /api/v1/satellites/60422 · /tle

For live sub-satellite position, see the globe view (requires WebGL).

§ Visibility from observer

Set your observer location to see the next 7 days of passes ≥ 10°. The values pass through the URL so the page stays shareable.

No JS? Fill the form by hand. The geolocation button needs JavaScript.